Theta_e
320 319 320 320 321 322 322 322 321 320 322 322 319 320 324 329 322 316 329 340 329 329 338 337 340 344 338 336 332 324 324 326 325 326 327 328 327 328 331 333 336 338 338 340 341 341 342 342 342 342 342 342 343 343 343 344 345 345 345 346 347 347 348 348 347 348 348 349 349 349 350 350 349 350 350 350 349 350 350 349 347 344 341 337 335 335 336
319 318 320 322 321 321 322 322 321 320 321 321 320 322 324 325 323 322 332 339 332 329 334 335 334 331 326 327 327 324 326 327 327 327 326 327 328 328 329 331 334 336 338 339 340 341 342 342 343 343 342 342 343 343 344 344 344 345 346 346 347 347 348 347 347 348 349 350 350 350 350 350 349 350 350 350 350 350 350 350 347 345 343 339 336 335 335
320 319 321 321 320 321 321 321 321 320 320 321 320 321 323 323 324 324 328 334 333 332 335 334 326 320 321 326 327 325 326 326 327 330 329 329 330 329 329 331 333 335 337 339 340 341 342 342 343 343 343 343 343 343 344 344 344 345 346 346 347 347 347 347 347 348 349 350 350 350 349 350 349 350 350 350 350 350 351 350 349 346 344 340 336 334 334
322 321 320 319 319 321 321 321 323 322 320 320 320 322 324 323 324 325 324 325 328 333 336 333 325 322 326 330 326 323 325 328 329 331 332 330 329 329 330 330 332 334 336 338 340 340 341 342 343 343 343 344 344 344 344 344 344 345 346 346 346 347 347 347 348 349 349 349 350 350 349 350 349 350 350 350 350 351 351 351 350 348 344 340 336 335 334
325 321 318 318 321 322 321 320 322 322 321 322 321 321 325 325 324 324 323 322 326 332 334 332 328 328 330 330 323 319 323 327 328 329 329 328 328 328 330 331 332 334 335 336 338 339 340 342 342 342 343 343 344 344 344 345 345 346 346 346 346 347 347 348 348 349 349 349 350 350 350 350 350 350 350 350 350 350 351 351 350 348 344 339 337 335 334
325 321 318 321 324 324 323 321 323 326 323 322 323 322 324 325 325 324 325 326 328 330 330 331 329 328 328 327 325 326 329 327 327 329 327 328 329 327 330 334 334 335 335 336 337 339 339 340 341 342 343 343 344 344 344 345 345 346 346 346 347 347 348 348 349 349 350 350 350 350 350 351 351 350 350 351 351 350 351 351 351 348 344 340 337 335 334
325 323 322 326 327 325 323 321 325 330 328 322 323 324 324 325 325 324 326 328 329 330 329 327 325 326 330 335 338 340 340 336 333 333 332 332 334 333 335 338 338 338 337 336 337 339 339 340 341 342 342 343 343 344 345 346 346 346 346 346 347 348 348 349 350 349 350 350 350 351 352 352 352 351 351 352 351 351 351 352 352 350 345 341 338 335 334
325 326 327 328 327 324 324 326 331 336 338 335 331 325 321 324 325 325 326 327 329 332 328 321 321 328 337 345 348 346 345 342 338 337 336 337 338 338 340 341 341 339 338 337 339 340 340 341 341 341 342 343 344 345 345 346 346 346 347 347 348 348 348 349 350 350 350 351 352 352 353 353 353 352 352 352 352 352 352 352 352 352 349 345 341 337 335
324 326 327 327 324 324 331 338 336 336 338 337 336 335 331 331 331 328 325 325 330 334 328 321 327 339 345 350 352 348 347 347 344 342 342 342 341 341 342 343 343 342 339 338 339 341 341 341 341 342 342 342 344 345 345 346 347 347 347 348 348 348 348 349 350 350 351 352 352 353 353 354 353 353 353 353 353 353 353 353 353 354 353 351 347 343 339
323 323 324 326 326 328 334 337 333 332 333 333 334 335 337 339 342 336 325 322 332 338 336 332 336 343 347 353 354 349 348 350 348 347 346 345 345 344 343 343 343 342 342 341 340 341 341 342 342 343 343 343 343 344 345 346 346 347 348 348 348 348 349 349 350 351 351 352 353 353 353 353 353 353 353 354 354 354 353 353 354 354 354 354 352 349 344
323 322 322 324 326 330 335 334 331 331 332 333 332 332 332 338 345 339 330 324 331 337 340 341 342 341 343 355 359 351 348 349 349 348 348 347 346 345 344 344 343 342 343 344 343 343 342 342 343 343 343 343 344 344 346 347 347 347 347 347 347 348 348 349 350 350 351 352 353 354 354 354 353 354 354 354 354 354 353 354 354 354 355 355 354 353 350
322 323 324 324 324 328 333 332 332 331 332 332 331 328 330 337 339 337 336 331 328 330 335 339 344 342 340 348 354 351 348 349 348 347 346 346 345 344 343 343 342 341 341 342 345 346 345 345 345 345 344 345 344 345 346 347 347 347 346 346 347 347 348 350 351 351 352 352 352 353 353 353 353 354 354 355 355 354 354 354 354 355 355 355 355 355 354
319 322 323 325 328 333 334 332 331 331 332 330 327 329 334 334 334 338 340 336 327 327 333 337 341 345 343 344 350 351 350 350 350 348 346 346 345 344 344 343 343 342 341 341 343 344 345 346 346 347 347 347 346 346 346 346 347 346 346 347 348 349 350 351 351 351 351 352 352 351 350 351 352 353 354 354 354 354 354 354 355 355 356 356 356 355 355
320 323 324 326 330 332 331 331 330 330 333 333 332 331 331 330 334 342 344 341 334 330 334 337 341 346 347 349 351 352 351 351 351 349 348 348 347 347 347 345 343 342 342 342 341 341 341 343 345 347 349 349 348 348 346 346 347 346 347 348 349 349 350 350 350 351 351 352 352 352 352 352 353 353 353 354 354 355 355 355 355 355 356 356 356 356 356
325 329 329 329 333 332 330 333 334 332 333 335 331 328 330 333 338 342 343 343 341 338 339 342 344 347 349 350 351 351 351 351 351 349 348 347 345 344 344 344 345 346 345 344 344 343 343 343 343 345 347 349 351 350 349 349 349 348 349 349 350 350 351 351 351 351 351 351 352 353 353 353 353 353 353 354 355 356 356 357 357 356 357 357 357 357 356
330 334 332 331 334 332 329 333 336 332 329 329 327 328 331 334 336 337 340 343 343 342 343 344 344 345 346 347 347 347 347 348 348 348 348 347 345 342 341 343 346 347 345 345 346 346 345 345 344 345 346 349 351 352 352 352 352 352 352 351 352 352 352 352 352 352 352 352 352 353 354 353 354 355 355 355 356 356 357 357 357 357 357 358 357 357 357
331 335 336 333 332 330 328 329 330 328 327 327 326 326 328 330 331 333 336 340 341 341 342 342 342 342 343 344 344 345 345 345 344 343 343 343 342 342 342 344 345 344 346 346 346 347 347 346 346 346 347 350 352 354 355 354 354 354 354 354 354 354 354 354 354 353 354 353 353 353 353 353 354 354 355 355 356 357 358 359 358 358 358 358 357 357 357
330 332 334 332 331 330 328 327 327 327 327 327 325 324 325 327 328 330 333 336 337 338 340 340 341 341 341 343 344 344 344 343 341 340 338 337 336 335 336 338 338 338 342 345 345 347 348 347 347 347 347 348 350 351 352 353 354 354 355 356 357 356 356 357 356 355 355 355 355 354 354 354 354 354 355 356 356 357 358 359 359 359 358 358 358 358 357
330 331 332 333 331 329 327 327 327 327 327 327 325 324 325 327 328 330 332 334 335 336 337 339 339 340 340 340 341 341 341 341 341 340 340 339 339 338 336 335 333 332 333 334 335 338 342 344 346 347 347 347 347 347 348 348 348 349 351 353 355 357 358 359 359 358 357 356 356 356 355 355 356 355 357 357 357 358 358 359 359 359 359 359 358 358 358
329 333 333 332 330 328 326 326 326 326 327 327 326 324 325 328 329 329 330 333 334 334 335 336 337 338 338 338 338 338 339 339 339 340 341 341 343 345 345 345 343 341 340 339 338 337 338 340 342 345 347 348 347 347 346 345 345 345 346 349 352 356 358 359 360 360 359 358 358 357 356 356 356 356 357 357 358 358 358 358 358 359 359 359 358 358 358
326 332 331 331 331 330 327 326 325 325 326 327 327 326 325 326 329 331 331 332 332 332 332 334 335 336 337 338 338 338 338 338 339 339 339 339 341 343 345 346 346 346 345 345 345 345 344 344 344 345 347 347 347 347 346 346 345 345 346 347 350 353 356 359 360 361 361 361 359 359 358 357 357 357 357 357 357 358 358 358 358 358 358 359 359 358 358
325 332 332 331 334 333 328 326 326 327 327 326 326 326 325 324 326 330 332 334 334 333 332 332 333 334 336 338 339 339 340 340 340 340 340 340 340 341 342 343 344 345 344 344 345 345 346 346 346 345 345 345 346 345 345 344 344 344 344 345 346 348 351 353 356 359 361 362 362 361 360 359 358 358 358 357 358 358 358 358 358 358 358 357 358 358 359
326 331 331 328 330 331 328 326 327 328 328 325 324 325 326 325 325 326 330 335 337 337 334 331 331 334 338 339 340 341 341 342 342 341 341 340 340 340 341 342 342 342 343 343 344 344 344 344 344 343 343 343 342 342 342 342 342 342 342 343 343 344 345 347 350 354 357 360 361 361 361 359 358 358 358 358 358 358 358 358 358 358 358 358 358 358 358
322 327 328 327 328 329 327 326 327 328 327 324 324 325 325 325 325 325 327 330 334 336 334 329 329 335 341 342 342 343 342 342 342 341 340 340 340 340 341 341 342 342 342 343 343 343 343 343 342 342 342 342 342 342 342 342 342 343 343 343 343 344 345 345 347 349 352 355 357 359 360 360 358 358 358 358 359 359 359 358 359 359 359 359 359 359 359
322 327 329 327 326 326 326 326 327 328 325 324 325 326 325 324 324 324 324 325 328 331 330 326 326 334 341 343 343 343 343 343 343 342 341 342 342 341 341 341 342 342 342 341 341 340 340 341 341 342 342 341 341 340 340 341 342 342 343 343 343 343 343 344 344 345 348 350 351 352 354 355 356 355 354 353 355 358 359 359 359 359 359 359 359 359 359
324 327 328 326 325 325 324 324 325 326 325 324 324 324 323 323 322 322 321 320 321 322 323 322 325 332 339 341 342 343 343 343 343 343 343 343 343 343 342 342 342 343 342 341 340 339 338 339 340 340 339 339 339 340 341 342 342 342 342 342 341 340 340 341 342 342 342 343 344 345 344 344 346 348 347 345 346 349 353 358 359 358 357 359 359 358 357
325 327 326 325 325 324 324 324 324 324 324 324 322 320 321 322 321 320 320 318 316 316 317 319 323 329 335 338 340 341 342 343 343 343 343 343 344 344 344 343 343 343 342 341 341 341 340 340 338 337 336 336 335 335 336 336 337 338 340 340 340 339 339 338 338 339 341 341 341 340 339 337 337 338 339 339 339 341 344 349 355 356 353 353 356 359 357
325 326 325 325 325 324 324 324 324 323 323 323 321 320 321 322 322 320 320 319 317 316 315 317 319 324 328 332 336 339 340 341 341 342 341 341 342 342 343 344 344 343 342 342 342 342 342 341 340 338 336 333 330 328 328 328 329 330 331 334 337 339 340 338 336 336 337 338 337 336 336 335 333 333 333 333 334 337 338 338 342 350 353 350 351 354 355
325 326 325 325 325 324 324 324 324 323 323 323 322 321 322 323 322 321 321 321 320 319 317 316 316 318 319 322 326 329 331 332 333 334 336 338 339 340 340 340 341 341 341 342 343 342 342 342 341 339 337 335 332 329 328 328 329 328 327 327 329 331 334 335 335 336 337 337 335 332 331 331 331 330 331 329 328 333 336 333 332 338 347 349 348 348 347
325 325 325 324 325 325 325 325 324 323 323 322 322 322 322 322 321 321 321 321 321 321 320 319 318 318 318 318 318 319 320 321 321 323 326 330 333 336 337 338 337 337 338 340 341 341 341 341 341 341 340 338 335 333 332 333 333 331 329 328 328 329 330 331 333 337 341 342 339 333 330 329 327 326 328 329 327 328 333 335 333 333 336 340 342 342 339
324 324 324 323 323 324 323 323 322 322 322 322 321 322 322 322 322 322 322 322 322 322 322 322 322 321 319 318 317 318 318 319 319 319 320 321 324 327 331 333 334 335 336 338 340 340 340 340 340 341 342 341 339 337 336 336 336 336 334 333 332 333 334 333 334 336 341 344 342 337 331 330 329 324 323 326 327 328 330 332 333 335 336 337 338 338 338
323 323 323 322 322 322 323 323 323 324 324 323 323 324 325 324 325 325 325 325 324 324 324 324 325 325 324 322 320 320 321 321 321 322 321 321 321 321 321 322 324 327 330 332 335 336 338 339 340 341 342 342 341 340 339 338 338 338 338 338 336 335 335 336 337 338 340 343 343 339 333 330 330 328 326 325 327 331 333 333 333 337 339 338 338 339 339
323 324 324 323 324 324 325 325 325 325 324 324 325 326 326 326 326 327 327 327 326 326 326 326 327 328 327 326 325 325 325 324 325 325 326 326 325 323 321 320 319 319 321 323 324 328 330 332 334 338 340 341 342 342 341 341 341 340 340 340 339 337 335 335 336 337 339 340 342 340 335 331 331 331 330 330 330 332 334 333 333 335 336 337 337 339 339
323 323 323 324 324 325 325 325 325 325 325 325 326 326 326 326 326 327 327 327 327 327 327 328 328 328 327 327 326 326 326 326 327 329 329 329 329 328 326 324 322 321 320 320 319 320 323 324 326 329 333 337 339 341 340 341 342 342 341 341 341 340 337 335 335 336 336 337 340 342 339 335 333 332 329 329 331 334 335 334 332 331 332 333 333 335 336
323 323 324 324 325 325 325 326 326 326 326 326 326 326 326 326 326 327 327 327 327 327 327 327 327 327 326 326 327 327 327 328 329 330 330 330 330 330 329 328 327 326 325 324 324 325 326 326 326 325 325 329 334 337 337 338 339 340 341 341 341 341 340 337 335 334 334 334 338 341 341 339 337 335 331 329 329 332 336 337 336 335 335 334 334 335 337
323 323 324 324 325 325 325 325 326 326 326 327 327 327 327 326 327 327 327 327 328 328 328 328 327 327 327 328 328 328 328 329 329 329 329 328 329 329 329 329 329 329 329 329 330 330 330 331 330 329 326 324 327 330 332 333 334 336 338 340 340 340 340 339 338 337 335 334 335 338 340 340 339 338 337 335 333 333 335 338 339 338 339 339 338 337 336
323 324 324 324 324 325 325 325 325 326 326 326 327 327 327 327 327 327 328 328 328 328 328 328 328 327 327 327 327 326 326 326 326 327 327 327 327 328 328 328 328 329 329 329 330 331 331 331 332 331 330 328 328 329 330 331 331 330 331 332 333 333 334 335 337 337 338 337 336 334 335 336 338 339 339 339 338 337 338 338 338 338 338 339 339 337 335
323 323 324 324 324 324 324 324 325 325 325 325 326 326 326 327 327 327 328 328 328 328 327 327 327 326 325 324 323 323 324 324 325 325 326 326 326 326 326 326 327 328 328 329 329 329 330 330 330 331 331 332 332 333 334 334 334 332 330 330 330 329 327 329 333 335 336 337 337 335 333 333 334 336 337 338 338 338 338 337 336 336 337 337 337 337 337
323 323 323 323 323 323 324 324 324 324 325 325 325 325 325 326 327 327 326 326 326 326 326 325 323 322 321 321 321 321 322 322 323 324 324 324 325 324 324 324 325 325 326 327 328 328 328 328 328 329 329 330 331 332 333 333 334 335 334 334 334 333 331 330 332 333 334 335 336 337 337 336 334 333 332 333 335 336 336 335 333 333 334 335 335 336 337
321 321 321 322 323 323 324 323 324 324 324 325 325 325 325 324 324 324 324 324 324 325 324 323 322 322 321 321 321 320 320 320 321 321 322 323 323 323 323 323 323 324 325 326 326 327 327 327 327 327 327 328 329 329 330 330 331 332 333 334 334 334 334 333 333 333 333 333 334 335 336 337 336 334 332 331 332 334 335 334 332 332 332 332 333 335 336
318 318 319 321 323 323 323 323 323 323 323 323 323 322 322 321 320 320 321 322 322 323 322 321 321 321 321 321 321 321 320 320 320 320 320 320 321 322 322 322 322 323 324 324 325 324 324 324 324 325 326 327 328 328 329 329 329 330 330 331 332 332 332 333 333 333 332 332 332 333 334 335 336 336 336 335 335 334 334 334 334 334 332 329 329 331 334
318 318 318 319 321 322 322 322 322 322 322 321 320 320 320 319 319 319 319 320 320 320 320 320 319 319 320 320 320 320 320 320 319 319 319 319 320 320 320 321 321 321 322 323 323 323 322 321 321 322 323 325 326 326 327 327 327 327 327 328 328 329 330 330 331 331 332 332 332 332 332 332 333 334 334 335 336 336 335 335 336 335 331 329 328 328 331
318 318 318 318 319 320 321 321 321 321 322 321 320 320 319 319 318 318 317 317 317 318 318 318 318 318 318 318 319 319 319 319 319 319 319 319 319 319 319 319 319 320 320 320 320 320 321 321 320 320 321 322 323 324 324 324 325 325 325 325 326 326 327 328 328 329 329 330 330 330 330 330 331 332 332 333 334 335 335 335 335 333 329 327 328 329 330
317 317 317 317 318 318 319 320 320 320 320 319 318 317 317 316 316 316 315 316 316 316 316 316 316 316 317 317 317 317 318 317 317 317 317 317 317 317 318 318 318 318 318 318 318 319 319 320 320 320 320 321 322 323 324 323 323 323 323 324 324 325 325 326 326 327 328 328 328 328 328 329 329 330 330 331 331 332 332 333 333 330 327 325 327 330 331
316 316 315 316 316 316 317 318 318 318 317 316 315 315 315 315 315 315 315 316 316 316 316 316 316 316 316 316 316 316 316 316 315 315 315 315 315 315 315 315 315 316 316 316 317 317 318 318 319 319 319 319 320 322 322 323 323 323 323 323 323 324 324 325 325 325 325 325 325 325 326 327 327 327 328 329 329 329 329 330 331 330 327 325 325 327 329
316 315 315 315 315 315 316 316 316 315 315 315 315 315 314 315 315 315 315 315 316 316 316 316 316 315 315 315 315 315 314 314 314 313 313 313 313 313 313 313 313 313 313 313 314 315 316 316 317 318 318 318 318 319 319 320 321 321 322 322 322 323 323 323 323 322 321 321 322 323 325 326 326 325 326 328 328 328 328 328 329 329 327 325 324 325 326
315 315 315 315 315 315 315 315 315 315 315 315 315 314 314 314 315 315 314 314 314 314 314 314 313 313 313 313 312 312 312 312 311 310 310 310 310 310 310 310 310 310 311 311 312 313 314 314 315 316 317 317 317 317 317 317 317 318 318 320 321 322 322 322 322 321 320 320 320 321 324 325 325 326 326 326 326 326 326 326 327 326 325 324 324 323 322
314 315 315 315 315 315 315 315 315 315 315 314 314 314 314 314 314 314 314 313 313 313 312 312 311 311 310 310 310 310 309 309 309 308 307 307 307 307 307 307 307 307 308 309 310 311 312 313 313 314 314 315 316 316 316 316 316 316 316 316 317 318 319 319 320 320 319 318 318 319 321 323 325 325 325 325 325 324 325 325 325 324 323 322 322 321 319
313 314 314 314 314 314 315 315 315 314 314 314 313 313 313 313 313 312 312 312 312 311 310 310 309 309 309 308 308 307 307 307 306 306 306 306 305 305 305 305 304 304 305 306 307 309 310 311 312 312 312 313 313 314 314 315 315 315 315 315 315 315 315 316 316 317 317 317 317 317 319 320 322 323 324 324 324 324 324 324 324 324 323 323 323 323 321
311 312 312 313 314 314 314 314 314 314 313 313 313 312 313 313 312 311 310 310 310 309 309 308 308 307 307 307 306 306 306 305 305 305 304 304 304 304 304 303 303 303 303 303 304 304 306 307 308 309 310 310 310 310 310 311 311 312 312 313 313 314 314 314 314 314 315 315 315 315 316 317 318 319 319 320 322 323 324 323 323 323 323 323 324 324 324
308 309 310 311 312 313 313 314 313 313 313 313 312 312 312 311 310 309 308 308 308 308 307 307 306 306 306 305 305 305 304 304 304 304 304 304 303 303 303 303 303 303 303 302 302 302 302 303 303 304 305 305 306 306 305 305 306 307 307 308 309 310 311 312 313 313 313 313 313 314 314 314 314 315 316 316 317 318 320 322 322 322 321 322 322 323 324
307 307 307 308 308 309 310 312 312 313 312 312 311 311 310 309 308 307 306 306 306 306 306 306 305 305 304 304 304 304 303 303 303 303 303 303 303 303 303 303 303 303 303 302 302 302 302 301 301 302 302 302 302 302 302 302 302 302 302 303 304 305 306 306 307 308 309 310 311 312 312 312 313 313 313 314 314 314 315 316 318 318 318 318 320 321 323
Wind_Speed
7 6 11 13 8 6 8 10 12 12 13 17 19 17 11 10 11 14 10 9 9 8 7 9 9 9 9 10 12 15 16 17 18 18 20 23 24 24 27 29 32 35 38 42 45 48 49 49 50 51 52 53 54 54 55 54 54 53 53 53 54 54 55 55 55 54 53 53 52 50 49 47 45 44 44 42 41 40 39 39 39 39 40 40 40 40 40
9 8 9 9 7 6 8 11 12 14 16 18 20 17 13 13 14 13 7 10 11 9 8 10 12 12 11 9 10 11 13 16 19 19 19 21 21 21 23 27 29 32 36 40 43 46 48 48 49 51 51 52 54 54 54 54 54 53 53 53 53 54 55 55 54 53 53 53 52 51 50 48 46 45 44 43 41 40 40 40 40 40 40 40 41 42 41
7 8 7 8 9 9 10 11 12 14 17 18 17 15 13 11 12 11 8 8 9 8 6 9 12 11 6 4 7 11 15 17 19 18 19 19 19 20 22 25 27 30 33 37 41 44 46 48 49 50 51 52 53 53 53 53 54 53 53 53 53 54 55 54 53 53 53 53 53 52 51 49 47 46 45 43 42 41 41 41 41 41 41 42 42 43 43
5 6 6 11 15 13 11 14 14 13 14 13 11 10 10 11 11 11 11 9 7 7 6 8 12 9 5 6 9 12 15 17 17 18 19 20 20 21 22 24 25 27 31 36 40 42 45 47 48 49 49 50 51 52 52 53 53 52 52 53 54 54 54 53 53 53 53 53 53 52 51 49 48 46 46 44 43 42 42 42 42 43 43 43 43 44 44
4 7 7 10 12 10 9 12 10 10 11 10 8 7 9 13 13 11 11 10 8 8 8 7 10 10 9 10 10 9 11 13 16 18 21 22 23 22 23 24 25 25 28 33 38 41 43 45 46 46 47 48 49 50 51 52 51 51 52 52 53 54 54 53 53 53 53 53 53 53 52 50 49 48 47 46 45 44 44 43 43 44 44 44 44 45 45
4 9 9 7 5 5 7 5 4 5 11 12 12 11 9 11 12 11 9 8 9 10 9 10 13 13 9 8 8 6 8 12 15 18 21 22 24 24 24 25 26 25 25 29 34 38 41 42 43 44 46 47 46 47 48 49 50 51 52 52 53 54 53 53 53 52 52 53 53 53 52 51 50 50 49 48 47 45 44 44 45 46 46 45 45 45 46
3 7 6 3 7 7 6 9 9 7 8 9 12 16 14 13 13 12 9 8 10 11 11 14 16 13 7 6 5 5 6 9 12 15 17 18 20 22 21 21 22 22 21 25 30 34 37 39 40 42 44 44 45 46 47 48 49 50 50 52 52 53 53 52 52 52 52 53 53 53 52 51 51 51 51 50 49 47 47 47 47 46 46 46 46 46 46
1 3 2 4 8 8 11 10 8 8 6 4 3 12 16 13 11 11 11 10 10 10 11 13 14 13 12 9 7 5 5 6 8 10 11 11 13 15 15 15 16 16 17 21 25 29 32 35 37 39 41 42 44 45 46 46 47 47 48 50 51 51 51 52 52 52 52 52 52 52 51 51 51 51 51 51 50 49 48 48 48 48 47 47 47 47 46
3 3 5 5 7 11 8 4 4 5 4 4 3 4 10 8 8 10 10 11 11 8 6 9 14 16 12 6 5 4 5 6 7 6 5 3 4 6 8 9 10 11 13 17 21 24 28 30 32 35 37 39 40 41 43 44 44 45 47 48 48 49 50 51 51 51 51 51 51 51 51 51 51 51 51 51 50 49 49 49 50 50 50 49 48 48 47
4 3 5 3 4 6 3 1 4 3 3 4 4 3 5 7 7 9 11 12 12 6 4 9 14 14 8 3 3 4 6 8 9 9 7 6 5 3 1 3 5 6 9 12 16 20 24 26 28 30 32 35 36 38 41 42 42 43 46 47 46 47 49 50 50 50 50 50 51 51 51 51 51 50 50 50 50 49 49 49 50 50 50 49 49 49 49
4 4 5 4 3 5 4 4 8 8 7 4 4 3 5 5 4 5 8 12 12 9 9 12 13 10 5 5 6 6 8 10 13 13 12 12 12 11 9 7 5 2 1 5 9 13 16 19 21 22 25 28 31 34 37 39 40 43 45 45 45 45 46 47 48 48 48 49 49 50 51 51 50 49 49 49 49 48 48 49 49 49 49 50 51 51 50
6 6 5 4 4 4 3 6 10 14 13 3 5 5 6 6 12 14 9 10 12 14 16 16 12 7 7 8 9 11 12 12 13 15 15 15 16 15 14 14 12 10 7 4 4 7 9 10 11 12 15 18 23 28 32 36 39 42 43 43 43 43 44 44 46 47 47 48 49 49 49 48 48 48 49 49 49 48 47 48 48 48 49 50 51 52 52
7 8 6 4 4 3 4 7 10 15 13 1 7 6 5 9 18 22 16 14 16 18 22 18 11 6 7 13 17 16 13 13 14 14 13 13 15 16 16 16 16 16 14 12 9 6 4 3 5 7 9 12 16 21 27 33 36 38 40 41 41 41 42 43 44 45 47 48 49 48 46 46 47 47 48 49 49 49 48 47 47 48 48 50 51 52 52
6 7 5 5 4 2 5 6 7 13 7 4 4 10 17 20 22 22 19 16 15 18 21 17 13 13 15 18 19 16 14 15 14 13 12 12 12 13 14 14 14 14 14 14 14 12 10 7 3 3 6 9 11 16 22 26 28 31 34 37 38 39 40 42 43 45 46 48 49 49 47 48 48 48 47 48 49 50 50 49 48 47 48 49 50 51 51
5 5 6 5 5 2 6 6 4 9 3 5 9 17 24 23 19 16 17 15 9 14 20 19 19 21 21 18 17 15 14 14 13 12 12 11 10 10 11 12 13 13 12 12 12 12 11 9 7 4 2 4 8 13 18 21 23 27 30 32 34 36 38 40 42 44 45 46 48 49 48 49 50 49 48 49 50 52 53 53 51 49 49 49 50 50 50
5 6 6 4 5 1 5 3 1 3 3 9 15 16 18 18 18 17 16 12 4 10 21 24 23 22 21 18 16 15 14 13 12 12 11 10 9 8 8 9 10 11 10 10 10 9 9 8 7 6 4 1 4 8 13 16 20 23 26 28 31 33 36 38 40 42 43 45 46 47 47 48 50 50 50 50 51 53 55 55 55 53 52 51 50 50 50
4 4 4 5 8 7 8 9 7 6 11 16 19 17 14 15 19 18 14 9 4 6 15 21 21 19 19 18 16 15 14 13 13 11 10 9 8 7 6 6 6 6 7 8 7 7 6 6 5 5 5 3 1 4 8 11 14 16 19 23 27 30 32 35 37 39 41 44 45 46 46 48 49 51 53 53 53 54 55 56 56 56 54 52 51 51 51
5 3 3 8 10 9 10 13 14 15 17 19 21 20 17 17 18 15 10 7 4 3 7 14 18 17 16 17 16 15 15 14 12 11 9 8 7 6 4 3 3 4 3 3 3 3 3 2 1 2 4 4 4 4 5 7 9 11 13 16 20 24 27 30 33 36 39 42 44 46 47 49 50 52 54 54 55 55 54 54 54 54 54 53 52 52 52
6 3 4 6 8 9 10 12 17 19 19 18 19 20 17 17 16 13 9 8 7 5 5 11 16 16 15 17 17 15 15 14 13 12 10 9 8 6 4 2 0 1 2 3 3 3 4 4 4 5 6 7 7 8 8 9 10 11 12 13 16 19 22 25 28 32 36 40 42 45 47 49 51 52 53 53 54 55 54 54 55 56 56 56 55 55 54
7 3 4 7 9 9 13 18 20 20 19 17 16 18 16 14 12 11 12 13 13 12 9 10 16 18 17 18 18 18 17 16 14 14 12 11 9 8 6 4 2 0 1 2 4 5 7 8 9 9 9 10 10 11 12 14 14 15 15 15 16 17 19 22 24 28 33 38 41 44 47 49 51 53 53 54 55 57 58 59 60 59 58 57 57 56 55
7 3 4 8 7 6 13 20 22 19 18 16 13 14 16 14 9 10 14 18 19 16 11 9 14 18 19 20 20 20 19 18 17 16 16 14 13 11 9 7 6 4 3 2 1 3 5 7 9 10 11 12 13 14 15 17 17 18 18 18 17 17 16 18 20 23 28 32 37 41 45 48 50 52 54 55 57 59 61 62 63 62 60 59 59 58 56
6 4 6 9 6 2 6 14 20 19 15 12 9 10 14 15 11 9 16 22 23 20 14 10 10 16 20 22 23 24 23 22 21 21 20 20 19 16 13 11 9 8 8 7 5 4 4 4 5 6 8 11 12 14 16 18 19 20 20 21 21 20 19 18 18 20 23 27 31 36 40 45 48 51 53 54 57 60 62 62 64 64 62 60 59 58 57
9 8 9 12 9 5 7 13 19 18 10 7 8 12 12 12 13 10 15 24 27 24 18 11 10 17 23 24 25 27 26 24 24 23 23 23 22 20 18 16 15 14 13 11 10 9 8 8 7 5 5 5 6 8 9 11 12 14 16 18 20 21 21 20 19 19 20 23 26 30 34 39 43 47 52 55 57 60 62 64 65 66 65 63 62 60 58
17 16 12 16 16 12 13 18 20 14 4 3 9 13 12 9 10 13 16 23 26 25 18 11 11 19 25 25 26 26 25 24 24 24 24 24 24 23 22 21 19 18 17 16 16 15 14 12 11 10 9 8 8 7 6 6 6 7 7 9 11 13 16 17 18 19 20 23 25 28 31 33 35 38 44 52 59 62 64 66 67 67 66 64 62 62 60
23 19 13 19 24 23 23 23 24 18 9 5 9 11 10 8 8 12 17 22 25 23 17 11 12 20 25 26 25 25 24 24 24 23 24 24 23 23 23 23 21 20 20 21 20 19 18 16 15 14 14 15 15 15 15 15 15 15 15 14 13 12 12 13 15 17 19 21 24 27 30 32 33 33 34 41 51 61 66 68 66 65 68 67 63 61 59
21 13 15 22 27 29 27 24 24 21 14 8 9 10 7 6 8 13 18 21 21 20 16 12 14 20 25 25 25 25 24 24 23 22 23 23 23 23 22 21 20 20 20 21 21 20 19 18 17 17 17 18 18 18 18 18 18 18 19 18 18 18 17 15 14 15 17 18 18 20 23 25 29 34 35 37 42 48 56 64 65 60 60 65 66 60 54
12 15 23 22 19 20 20 20 22 22 18 14 13 13 9 7 9 15 19 19 17 17 15 14 17 21 23 24 24 24 24 24 23 23 24 24 23 22 20 18 17 17 17 19 19 18 17 17 17 18 19 20 21 21 20 19 19 19 19 19 18 19 19 18 17 14 12 12 13 15 18 21 21 22 25 29 34 39 47 58 68 68 57 55 62 60 48
10 18 18 14 18 21 19 19 23 23 18 16 16 15 13 12 13 17 19 18 15 14 14 15 17 20 22 22 23 23 23 24 25 25 25 24 23 21 19 18 17 16 16 17 18 17 15 15 16 17 19 20 21 21 20 20 19 19 19 20 19 19 20 21 21 20 18 16 16 17 19 21 22 17 16 21 20 20 26 29 43 66 64 51 50 51 43
14 16 12 13 25 29 23 22 24 22 18 16 15 13 13 13 16 19 19 18 16 15 15 15 16 18 19 19 20 21 22 23 24 24 23 22 21 20 19 18 17 16 16 16 16 15 14 13 14 15 16 17 18 19 18 18 18 18 18 18 18 18 19 20 20 20 20 17 16 18 20 21 23 23 24 31 33 21 10 10 4 31 57 59 52 49 47
14 17 15 18 27 29 26 26 25 21 19 19 16 14 13 13 17 20 19 18 17 16 16 16 16 16 17 17 17 18 19 21 21 21 21 20 19 18 16 14 14 16 18 18 16 15 14 13 13 13 13 13 14 15 16 15 15 16 16 16 16 16 16 17 17 16 17 15 13 14 16 16 20 24 24 26 33 30 21 23 28 15 30 58 62 55 51
15 20 22 25 28 27 27 27 25 23 23 22 21 20 18 17 20 21 19 18 17 17 17 17 17 17 16 15 15 15 16 18 19 19 19 19 18 16 15 13 14 17 18 18 16 15 14 13 13 13 12 11 10 11 13 13 13 13 13 14 14 14 14 14 14 13 13 13 11 11 12 12 15 19 20 21 24 24 21 21 26 26 30 49 56 51 47
23 23 23 25 27 27 27 27 26 25 24 23 23 23 21 20 22 21 20 19 19 17 17 17 17 18 17 16 15 15 16 17 19 19 18 18 17 16 15 14 14 15 15 15 15 15 14 13 13 13 13 11 9 8 9 10 10 11 11 10 12 12 12 12 13 12 10 10 9 6 7 9 11 12 15 18 18 17 16 16 18 21 27 35 40 41 40
27 22 21 24 27 27 26 25 26 26 24 22 22 22 20 20 21 21 20 20 20 19 20 20 19 19 18 18 18 19 19 20 21 21 21 19 18 16 14 13 13 12 13 13 13 13 13 14 13 13 12 12 10 8 7 7 9 10 9 7 8 9 9 9 11 11 9 8 7 5 4 6 7 9 11 13 13 14 16 17 17 19 20 22 25 27 26
24 22 22 26 29 28 27 27 27 26 24 23 22 21 20 20 20 20 20 21 21 21 21 20 20 20 19 20 20 20 21 23 24 24 22 20 19 17 14 13 11 11 11 11 11 12 14 14 13 12 11 10 10 9 8 8 8 8 8 8 6 6 7 8 8 9 8 6 4 3 2 4 5 6 7 8 8 8 11 14 15 15 15 16 17 18 18
22 23 25 27 28 29 29 29 27 25 25 24 22 20 19 19 19 19 20 20 20 20 19 19 20 21 22 22 23 23 23 23 22 21 20 19 18 16 15 14 14 13 13 13 14 15 15 14 14 13 11 9 8 8 8 8 8 7 7 7 5 4 3 5 5 6 7 6 4 2 1 1 4 4 4 5 5 5 6 9 11 11 12 13 14 15 16
23 25 25 25 25 26 27 27 25 24 24 24 22 21 19 18 18 18 19 19 20 19 19 20 22 24 24 25 25 25 24 22 20 19 19 18 17 17 17 18 19 18 18 19 18 18 17 16 16 15 13 9 7 6 7 7 8 7 7 7 5 4 4 4 4 4 5 6 5 2 1 2 3 4 4 4 4 5 5 6 7 7 8 10 11 13 13
23 24 24 24 24 24 24 23 22 22 22 23 22 21 20 19 18 18 19 20 21 21 22 24 26 27 27 27 26 25 24 22 21 20 19 18 18 19 22 24 25 24 24 23 21 20 19 17 16 15 13 11 9 7 7 7 7 7 8 8 7 7 8 7 6 5 5 4 4 2 1 2 2 3 4 4 4 4 5 5 6 6 6 7 8 9 11
22 23 24 24 24 23 23 23 22 23 24 24 23 21 20 19 19 19 21 23 23 24 25 27 29 29 29 28 27 26 25 23 23 23 23 23 23 25 28 29 28 27 25 22 19 18 18 18 16 15 14 12 11 9 9 8 6 6 8 8 7 7 8 8 8 8 7 5 4 3 3 3 3 3 4 4 5 5 5 6 7 7 8 8 9 11 14
24 25 26 26 26 26 27 27 26 27 28 28 27 26 26 25 25 26 27 27 27 27 29 30 31 31 30 29 29 28 27 26 26 26 26 27 27 28 29 29 27 25 22 19 17 18 18 17 17 18 17 16 14 13 11 10 8 7 7 7 7 7 7 7 8 8 7 6 5 7 7 5 4 3 3 4 5 6 6 7 8 9 10 11 12 14 15
26 25 27 28 29 30 30 31 30 30 29 30 31 32 32 32 33 33 32 30 29 29 30 31 31 31 30 30 30 30 29 28 28 27 26 26 26 26 27 27 25 23 21 19 18 18 18 17 19 20 20 19 18 17 15 13 12 10 8 7 7 8 7 7 7 8 7 6 4 6 8 7 7 8 9 9 9 8 8 8 9 11 13 14 14 15 15
27 27 28 30 31 31 31 31 32 32 31 32 32 32 32 33 34 34 32 30 29 29 29 29 29 28 27 27 27 28 28 28 28 27 27 27 27 26 27 25 23 20 19 19 18 19 20 21 21 21 21 20 19 18 17 16 16 15 14 13 12 11 10 10 9 9 9 7 6 6 7 7 8 11 12 12 12 11 10 10 11 13 16 16 16 16 16
27 28 28 28 28 29 29 29 31 31 31 30 30 30 30 31 31 31 30 29 28 28 28 27 26 25 24 23 24 25 26 26 27 27 28 29 28 27 27 25 22 20 19 18 18 19 21 23 24 23 21 19 18 17 16 16 17 18 18 17 17 15 14 12 12 11 11 11 10 9 8 7 8 9 10 11 12 12 10 9 11 15 17 17 16 16 16
26 27 28 27 26 26 26 26 28 29 29 27 26 26 27 27 27 27 27 27 27 27 26 25 24 24 23 23 23 24 25 25 26 26 27 28 28 28 27 25 23 22 22 21 22 22 22 23 24 23 21 19 18 16 16 17 17 17 17 17 16 16 15 15 14 14 13 13 13 13 11 9 8 8 8 9 10 10 8 8 10 13 15 16 18 19 20
27 28 29 28 27 26 26 26 27 28 28 27 26 25 25 25 26 25 25 26 26 25 24 24 23 23 23 23 24 25 25 25 25 25 26 28 29 29 28 26 25 25 24 24 25 26 25 23 22 21 20 19 18 16 16 17 18 18 18 17 16 15 15 14 14 14 14 14 14 15 14 12 10 9 8 8 7 6 6 8 10 13 16 17 18 21 22
28 28 28 27 27 27 27 28 28 29 28 26 26 25 26 26 25 25 24 25 25 24 24 24 24 24 24 24 25 26 26 26 26 26 27 29 30 29 27 25 25 25 24 24 26 27 26 24 22 20 19 19 17 16 16 17 17 17 18 18 16 15 15 15 14 14 14 13 13 13 12 12 12 11 9 8 6 4 3 5 7 12 16 17 17 19 21
28 27 26 26 26 26 27 27 26 25 24 24 26 27 26 25 25 24 23 23 24 24 24 25 25 25 25 25 24 24 25 26 27 27 27 27 26 25 24 24 24 23 23 23 25 26 25 24 23 21 20 18 18 17 17 17 16 16 16 16 16 16 15 14 14 14 14 14 14 12 10 9 10 11 12 12 9 7 6 5 5 11 17 18 18 19 20
25 25 25 25 25 24 24 23 23 23 23 24 25 26 24 23 24 23 22 22 23 24 24 24 24 24 23 23 23 23 23 23 25 25 24 23 22 22 21 22 22 22 21 21 23 24 23 23 22 22 21 20 20 20 21 20 19 18 17 16 15 14 14 13 13 13 14 14 13 12 9 8 8 8 10 11 10 9 9 10 10 12 16 17 17 17 17
23 23 23 22 22 22 21 21 22 23 24 24 24 24 23 22 23 23 22 22 22 22 22 22 22 21 20 20 21 21 21 21 22 23 22 21 21 21 22 22 22 21 21 20 20 20 20 21 21 21 21 21 22 22 23 23 23 22 21 20 19 17 16 15 15 15 15 14 13 12 9 8 7 6 7 8 8 8 8 9 9 11 14 16 15 15 14
21 21 20 20 19 19 19 20 22 23 22 22 23 23 21 20 21 22 21 20 20 20 20 19 19 19 18 19 19 20 20 20 21 21 20 19 20 21 21 22 22 22 21 21 20 19 19 19 19 20 21 22 23 23 24 24 24 24 23 23 22 21 21 20 19 18 16 15 13 12 11 9 7 6 5 5 4 5 6 6 7 10 14 15 16 16 15
21 21 21 20 19 18 17 18 20 21 20 20 20 19 17 17 18 19 18 17 16 17 17 17 17 17 17 17 17 18 17 17 18 18 17 18 19 20 20 21 22 22 22 21 21 20 19 19 19 20 20 21 22 23 24 24 24 24 25 25 24 23 23 22 21 20 19 18 16 14 13 12 10 8 6 4 2 1 2 2 4 7 11 13 15 16 17
23 23 23 22 21 20 18 18 18 18 17 16 16 15 14 16 17 18 16 14 14 14 14 15 16 15 15 15 15 15 15 15 16 16 16 17 17 17 18 18 19 20 20 20 20 20 20 20 20 21 21 21 22 23 23 23 23 24 24 24 24 24 24 23 23 22 22 21 20 18 16 15 13 11 10 8 6 3 1 3 5 6 9 11 13 16 17
22 22 22 21 20 20 19 17 16 15 14 13 13 13 13 14 15 15 14 13 13 12 12 13 13 13 13 12 13 13 13 13 13 14 14 14 14 14 15 15 16 16 17 17 18 18 18 19 19 20 21 21 21 22 22 22 23 23 23 23 23 23 23 24 24 24 23 22 21 20 19 18 16 14 13 13 11 9 5 1 3 5 7 9 12 14 16
Wind_Direction
308 297 286 281 283 258 246 260 254 236 218 206 211 219 198 163 201 236 224 176 191 232 236 231 227 215 216 227 234 241 247 256 263 260 255 255 257 255 251 246 239 232 228 226 224 224 224 223 223 223 223 224 225 227 228 228 227 229 229 228 228 228 228 231 234 235 235 234 235 235 236 237 238 238 238 239 239 240 240 240 239 238 237 237 238 239 240
311 299 282 277 291 287 269 262 254 247 236 222 218 218 203 197 224 240 213 181 199 222 224 228 229 221 216 218 226 236 245 254 261 262 261 261 261 262 260 254 245 237 232 230 228 226 224 222 223 223 223 225 225 226 227 227 228 229 228 228 228 228 229 233 235 234 233 233 233 234 235 236 237 237 237 237 237 238 238 239 238 237 237 236 236 238 239
309 298 298 306 309 301 286 274 259 248 244 237 230 222 210 208 227 241 223 198 217 241 242 243 246 245 246 235 222 224 233 248 260 265 263 261 262 267 268 262 252 243 235 231 228 226 225 224 223 223 224 226 227 227 227 227 229 229 227 228 229 229 232 235 234 232 232 232 232 233 234 235 236 235 235 235 235 236 236 237 237 237 236 235 235 236 237
294 294 323 323 317 312 289 268 258 248 243 244 238 224 212 205 210 228 234 225 231 249 252 258 263 266 262 244 237 235 238 248 258 260 258 260 268 273 273 269 260 249 240 233 228 227 228 227 224 224 226 227 227 227 228 229 229 228 227 228 230 232 234 234 231 231 232 232 232 233 233 234 234 234 234 234 234 234 235 235 236 236 235 234 234 235 237
288 292 310 319 322 314 275 259 256 242 234 239 252 247 224 209 200 207 225 226 218 215 211 229 256 259 245 239 244 246 244 247 253 259 263 267 273 276 275 274 271 262 251 241 234 231 230 228 227 228 229 228 230 232 232 231 229 227 228 230 232 234 233 231 230 231 231 231 232 233 233 233 233 233 233 234 233 233 233 234 235 235 234 234 234 235 236
280 290 310 325 301 253 251 289 338 273 235 222 228 239 227 212 212 216 220 213 207 205 190 198 231 241 235 231 230 224 231 236 243 254 261 264 269 272 274 276 277 275 264 248 240 236 233 233 234 233 231 231 235 235 233 231 228 228 230 231 232 233 232 231 232 231 230 231 232 232 232 231 231 232 233 234 233 233 233 233 234 234 234 233 233 234 235
263 295 328 308 234 235 297 334 347 319 264 222 223 234 226 212 218 227 228 217 212 209 198 205 221 221 188 167 167 171 203 221 230 246 257 261 263 266 270 274 277 279 270 251 241 238 236 236 235 233 232 234 234 233 231 230 230 230 231 232 232 232 231 231 231 230 230 231 231 231 230 230 231 232 233 234 235 234 234 234 234 234 234 234 233 234 235
211 296 301 233 247 292 322 329 348 354 340 350 302 252 239 221 208 213 224 227 223 216 212 214 210 185 154 129 113 129 174 198 212 228 243 256 261 261 267 273 273 274 266 250 242 240 239 237 234 232 234 234 231 230 230 230 231 232 231 230 230 231 231 232 232 231 230 230 229 229 229 229 231 232 234 235 235 236 236 236 237 236 236 236 235 235 235
172 225 253 260 296 314 323 337 1 6 342 343 358 258 257 245 204 196 210 225 232 231 219 194 173 157 141 112 86 108 142 162 179 192 202 232 267 270 271 274 271 267 260 249 242 240 238 237 236 235 235 234 232 231 231 231 230 231 231 230 232 233 234 234 233 232 230 229 229 229 229 230 232 234 234 235 236 236 237 238 238 238 238 238 238 237 237
177 210 264 285 304 290 256 255 304 299 270 256 194 185 275 268 221 204 204 210 219 218 165 158 156 144 134 158 186 147 133 136 136 132 125 115 96 74 14 302 280 263 255 248 241 239 239 238 237 236 234 234 235 234 233 232 231 231 232 233 234 235 236 236 234 233 232 231 230 230 231 233 235 235 235 236 236 237 238 239 240 241 241 241 240 240 239
172 183 230 239 242 245 246 297 311 317 309 267 168 174 280 292 314 281 224 207 204 189 163 157 153 144 158 211 216 173 140 128 123 118 112 102 93 84 75 62 40 18 254 234 227 230 237 240 239 238 236 235 236 236 235 233 232 233 235 237 238 239 239 238 235 234 233 232 232 232 233 235 237 236 236 236 236 237 239 241 242 243 243 243 243 242 241
185 192 221 240 241 250 297 321 319 323 325 321 152 207 260 320 339 321 278 226 210 183 165 160 160 173 193 194 186 168 144 125 119 116 108 100 94 87 79 72 63 62 74 111 168 198 220 233 239 242 242 243 242 240 238 235 234 236 240 243 243 243 240 237 234 235 235 234 234 235 237 239 239 238 237 237 236 237 239 241 242 243 244 245 244 244 243
202 201 224 260 250 259 315 318 325 335 334 290 166 215 276 323 317 309 299 265 230 188 167 168 177 187 172 157 157 155 138 122 117 112 104 97 91 86 82 78 74 71 73 78 86 100 134 193 228 237 242 246 246 244 241 238 239 243 245 245 243 240 238 236 236 237 237 237 237 238 240 241 239 238 238 238 238 238 237 238 240 241 243 245 246 246 245
216 199 218 258 251 291 329 312 349 10 5 195 211 300 308 307 299 302 315 299 248 191 168 168 161 142 139 144 146 144 134 125 117 109 108 105 96 91 88 83 82 78 74 75 75 75 77 82 109 197 229 240 244 246 246 247 251 254 252 249 247 244 242 241 240 239 239 240 239 239 239 238 237 237 239 239 239 238 236 235 237 238 240 242 243 244 245
216 195 204 228 227 281 332 313 0 37 34 257 299 310 305 307 311 318 333 327 269 185 157 146 140 137 137 139 139 134 128 123 116 113 117 115 108 102 95 86 84 82 78 77 73 68 65 65 72 90 150 215 232 246 252 257 260 259 256 255 253 250 248 246 244 243 242 242 241 239 237 237 237 237 238 237 237 237 235 233 233 234 236 237 238 240 242
201 194 203 202 190 178 26 29 148 93 22 326 329 318 305 322 344 346 343 343 310 168 146 137 136 137 135 134 135 131 125 122 119 115 111 107 104 100 89 84 85 86 86 82 75 69 62 53 48 49 53 108 217 240 249 254 255 255 254 255 254 253 252 251 249 247 246 244 243 241 240 239 238 238 238 237 237 236 234 232 231 231 232 232 233 235 237
239 225 203 145 138 124 89 92 113 88 46 18 359 340 323 340 359 359 356 6 38 136 136 131 129 128 127 129 129 125 120 116 112 109 103 98 95 87 79 76 72 77 88 89 86 84 73 55 39 24 20 20 290 246 247 251 255 255 254 253 251 251 253 253 252 251 248 246 245 244 243 241 240 240 239 236 235 234 232 229 228 229 229 229 229 231 233
269 255 150 129 128 128 116 103 89 69 52 35 14 358 355 7 11 11 15 29 53 116 128 123 121 119 119 120 117 114 112 108 103 102 97 92 88 85 86 75 34 27 45 63 84 100 91 74 10 334 328 322 314 289 269 268 268 266 264 261 257 255 254 254 255 254 251 249 248 247 244 241 240 241 238 234 232 232 230 228 228 228 227 227 228 229 230
263 232 155 135 135 137 128 100 73 58 51 41 19 5 13 24 20 21 47 74 81 82 100 116 117 115 114 112 108 105 103 99 95 92 87 84 86 85 91 97 72 274 270 280 281 284 291 286 284 290 291 295 299 294 287 283 277 274 274 271 268 265 261 259 258 256 254 253 250 248 245 241 239 238 236 233 232 230 228 228 228 228 227 226 226 225 226
263 220 162 152 144 119 93 81 68 54 49 43 21 7 18 36 36 38 60 80 83 75 77 102 110 109 108 107 103 99 94 88 82 78 73 71 73 73 70 65 58 54 234 243 250 260 271 277 284 291 292 291 290 286 283 280 276 276 277 273 271 270 265 261 259 257 256 256 253 250 247 244 241 238 236 234 232 232 232 231 229 227 226 226 225 225 224
271 233 186 169 154 91 69 75 73 61 47 40 28 17 16 23 41 68 77 81 80 74 68 84 102 106 106 105 101 96 91 84 77 73 69 66 66 65 59 48 34 20 12 5 303 263 260 265 274 282 286 288 288 286 285 284 282 281 280 278 280 280 274 266 261 258 258 259 257 256 254 250 247 244 242 239 236 235 236 236 233 231 231 230 229 227 225
255 217 195 183 168 113 89 91 80 65 47 32 41 50 32 16 18 68 97 97 91 83 73 67 90 102 102 99 96 91 86 83 79 76 74 72 69 65 60 55 46 36 26 17 6 354 335 314 298 289 284 282 282 282 283 284 284 284 282 281 282 284 284 281 273 267 264 261 261 261 260 257 255 252 248 245 242 240 239 239 238 236 236 237 237 233 228
268 259 212 176 147 122 136 111 81 62 42 28 52 63 53 27 11 33 88 99 95 90 82 68 79 94 94 92 91 88 86 84 81 79 77 74 70 66 61 57 54 51 48 45 43 40 35 29 24 11 343 318 300 290 286 284 286 286 284 281 279 279 281 284 283 282 278 272 267 264 260 258 258 256 252 250 247 244 242 241 239 237 235 236 238 236 231
274 266 213 159 132 122 129 115 94 78 66 82 74 64 57 46 26 31 63 85 90 92 90 78 81 93 94 91 89 88 86 84 81 77 75 71 68 64 58 54 54 57 59 61 61 60 58 55 51 47 42 40 41 42 35 21 6 353 337 319 305 296 292 290 291 291 291 288 283 275 267 261 259 258 256 253 249 246 244 241 239 236 233 231 231 232 231
254 252 207 153 134 129 125 116 111 116 126 109 85 75 62 54 51 50 60 73 83 91 93 85 86 95 96 94 91 89 88 86 82 79 76 73 69 65 60 56 55 58 63 66 67 66 64 63 60 59 60 61 62 63 62 58 52 46 41 34 22 7 346 325 312 305 301 298 295 290 284 276 267 263 264 261 255 249 242 237 234 234 230 226 226 226 223
252 224 164 137 129 129 127 121 120 126 132 121 103 97 81 61 66 66 64 68 79 89 92 88 89 94 97 97 96 95 94 92 89 84 80 76 71 67 64 60 57 60 65 67 66 63 61 61 61 63 65 64 62 61 61 60 58 54 51 47 43 37 28 11 348 327 313 307 307 310 313 308 290 278 278 281 275 261 245 233 226 222 220 219 218 218 214
251 164 139 124 121 131 134 130 131 136 139 136 125 119 117 106 89 80 72 68 72 79 82 82 86 91 95 97 98 99 98 96 94 88 82 79 76 73 71 67 63 62 65 66 64 60 57 57 59 62 64 62 60 57 55 53 54 54 53 53 51 49 45 38 30 16 356 345 345 349 357 358 338 307 295 297 288 270 254 238 219 205 201 203 204 205 206
207 161 151 142 144 147 141 135 136 139 139 138 134 132 134 128 110 99 91 84 80 80 82 84 84 86 89 92 96 100 99 97 94 90 85 84 82 80 77 72 66 62 61 60 58 53 50 52 57 60 61 58 55 53 49 46 46 47 48 52 54 52 49 49 54 56 52 46 41 37 34 31 23 15 10 1 338 288 264 246 207 188 183 184 186 186 185
195 181 185 166 150 145 138 133 134 133 132 135 138 142 145 130 108 101 100 97 93 90 88 89 88 85 85 86 89 93 94 93 92 90 89 87 84 80 76 73 70 68 65 63 59 53 48 48 51 55 57 54 51 49 46 42 42 42 44 48 51 48 43 43 50 57 58 58 57 49 43 41 40 40 40 34 27 18 357 5 83 170 171 166 159 156 155
193 181 170 149 143 142 137 134 133 132 135 137 135 137 142 127 104 97 96 96 94 89 85 87 91 91 88 83 79 80 82 84 85 86 85 84 81 78 76 76 73 68 63 61 59 55 51 47 44 44 43 41 43 47 46 41 38 38 40 44 46 44 41 37 35 40 43 42 42 43 42 48 50 46 47 48 41 35 36 33 24 43 139 142 139 139 142
163 157 145 136 135 135 131 130 130 130 133 135 131 127 126 118 107 102 99 96 94 91 88 86 86 86 86 83 79 78 78 77 77 76 75 75 73 70 67 66 65 64 62 60 57 52 48 47 44 37 29 22 24 33 36 35 33 31 34 40 41 38 36 32 26 28 32 29 29 39 47 55 59 53 52 58 56 48 49 51 41 47 90 115 124 132 140
138 137 133 130 128 125 123 126 127 126 126 127 124 119 115 111 109 106 102 99 97 96 93 88 84 83 84 84 83 82 78 75 72 68 65 64 62 59 55 53 54 58 59 58 55 50 45 43 40 33 23 12 6 10 16 16 13 12 16 29 37 36 34 30 23 21 25 26 29 47 59 59 69 76 72 72 80 87 87 84 82 86 96 109 122 134 144
136 133 131 130 126 121 119 120 119 117 117 115 111 108 104 102 102 100 99 98 97 94 91 89 86 87 87 85 82 80 77 74 70 64 60 58 55 53 51 47 44 45 45 44 46 46 42 40 36 29 20 10 2 358 357 354 353 353 352 359 19 30 36 37 30 22 18 18 22 39 71 76 79 86 85 82 91 109 115 113 112 113 113 116 126 136 143
131 132 133 131 127 122 120 118 115 114 114 110 105 103 101 101 101 101 99 97 96 94 93 91 90 90 88 84 80 77 73 70 66 62 60 59 56 56 57 56 52 50 45 39 36 36 36 35 31 24 16 8 3 1 358 358 358 354 348 345 349 8 28 41 43 34 22 13 11 20 57 100 103 88 78 79 85 101 117 123 123 123 125 127 131 137 142
113 118 119 120 120 118 117 116 115 115 114 111 108 106 106 106 106 105 100 97 96 97 95 93 90 88 83 78 75 72 69 68 67 65 64 63 61 61 65 66 64 61 55 47 40 35 32 30 26 20 11 2 2 7 10 13 13 6 359 355 342 330 360 29 43 44 33 19 6 352 342 129 131 120 93 84 88 98 115 125 127 129 135 140 143 146 150
106 109 109 111 114 114 114 114 115 115 114 114 114 114 114 112 110 106 102 101 102 101 97 92 88 83 77 74 72 71 70 69 68 67 65 63 62 63 65 63 60 57 53 48 40 32 27 23 18 13 7 359 360 5 6 12 17 12 11 17 13 357 352 357 6 30 37 25 13 2 276 205 172 160 149 136 132 133 135 136 135 135 141 149 153 155 157
106 111 112 113 114 113 111 112 114 114 113 112 111 111 109 107 107 107 107 106 103 96 90 86 83 81 79 78 78 77 75 73 71 70 69 68 67 65 62 57 52 49 46 42 34 29 27 22 14 10 7 7 10 12 8 7 9 2 358 4 12 13 11 3 353 355 6 6 3 6 168 192 203 195 180 168 161 157 155 155 156 157 161 165 168 175 183
101 104 106 107 107 106 106 108 109 109 107 104 102 99 97 98 102 104 102 99 94 89 86 86 86 86 86 85 82 81 79 76 74 73 70 68 65 62 59 55 50 47 44 39 32 31 32 30 25 23 22 20 19 19 15 12 12 6 356 350 349 353 357 357 354 350 346 337 321 295 248 196 173 185 195 192 185 179 178 181 186 189 192 192 196 203 208
86 91 96 98 97 97 98 99 98 97 96 96 94 92 91 93 95 95 93 92 93 92 92 92 90 89 87 84 82 80 78 76 74 73 71 70 68 67 65 62 57 52 47 41 37 37 37 35 34 33 32 29 26 22 17 11 9 7 3 359 357 356 353 348 346 346 346 341 316 292 274 242 199 189 213 221 212 198 191 196 206 210 209 206 207 211 213
80 85 92 96 96 94 93 92 91 91 91 92 91 90 90 92 92 92 92 91 91 92 92 91 89 86 84 82 80 78 77 75 74 74 74 72 70 68 67 63 58 53 47 41 40 41 39 36 35 34 30 28 28 26 24 22 17 10 4 359 356 356 355 350 346 347 354 0 341 308 296 274 237 222 225 229 229 219 207 208 216 216 208 201 202 206 207
81 81 84 90 93 93 92 92 92 91 90 90 91 91 92 93 93 93 93 92 91 90 89 87 84 83 82 81 79 77 75 72 70 69 68 66 63 62 62 58 52 48 44 39 40 42 40 38 37 34 29 29 31 31 32 35 37 37 35 31 22 14 6 357 348 342 341 341 335 324 318 303 275 256 246 239 237 233 226 226 231 225 210 198 193 195 197
85 84 84 87 91 94 95 95 94 92 92 92 92 93 93 94 93 94 94 93 92 90 88 86 84 84 82 80 78 76 73 71 68 64 63 62 60 59 58 55 49 44 41 38 39 41 41 39 37 33 27 26 27 28 30 37 42 45 45 42 37 34 28 18 8 359 350 343 340 337 331 319 305 293 278 263 255 251 248 246 240 228 214 198 183 178 183
88 90 89 90 93 95 96 95 95 96 96 95 96 96 95 94 93 92 91 90 88 87 86 85 83 82 80 76 75 74 73 71 69 66 65 63 61 58 55 52 47 43 41 39 37 36 35 34 33 31 27 25 24 25 28 33 38 41 41 39 37 36 34 31 28 24 18 13 11 7 358 345 329 317 302 284 268 259 257 253 233 210 196 183 170 165 170
89 91 91 92 93 95 95 96 97 98 97 97 98 98 95 92 90 88 87 86 85 83 81 80 78 76 75 72 71 71 69 65 64 63 61 60 58 54 50 47 44 42 41 40 40 38 34 31 28 25 24 24 24 26 30 33 34 34 33 33 32 33 33 32 32 30 27 25 22 19 17 14 5 351 332 311 292 280 276 264 230 192 172 167 167 165 165
90 91 93 94 94 94 94 96 97 98 97 96 94 92 89 88 88 86 85 85 84 81 79 79 76 74 73 72 70 69 67 63 60 57 56 56 55 52 47 43 42 40 39 40 41 40 37 33 29 26 25 24 24 26 30 31 30 29 29 28 29 30 31 32 31 29 27 24 19 17 23 30 31 27 19 3 346 342 331 285 234 186 162 155 157 159 158
91 91 93 94 95 95 96 97 97 98 97 93 89 86 85 85 85 84 83 84 84 82 81 79 77 75 74 73 71 69 68 65 61 58 56 56 56 52 46 42 40 37 35 37 40 39 37 33 31 30 31 30 30 32 34 33 30 29 29 30 31 33 36 37 35 30 26 23 19 16 22 34 38 39 39 34 29 38 60 76 135 156 151 147 149 154 156
90 90 90 91 92 93 94 95 93 92 91 88 87 88 87 85 86 87 87 86 86 85 83 81 78 76 73 70 67 64 63 62 61 59 55 52 51 48 45 42 40 35 33 35 38 38 35 33 31 31 32 33 35 38 39 39 38 37 35 34 34 35 35 33 28 23 19 19 19 18 23 35 44 50 57 58 56 59 69 80 103 134 146 148 150 154 154
82 85 88 91 91 90 90 90 90 90 91 93 93 94 92 91 91 92 91 89 89 87 84 81 79 76 72 68 66 61 57 56 58 57 52 47 46 45 44 43 41 37 35 37 39 38 36 34 33 32 32 33 36 38 38 38 39 40 40 38 37 36 34 30 25 19 16 16 17 18 22 32 42 48 56 67 78 88 93 96 112 135 147 151 154 156 156
74 76 81 85 88 90 93 95 96 97 99 100 100 99 98 96 94 93 92 91 90 88 86 83 80 76 71 67 64 61 58 56 58 59 54 48 46 46 45 43 41 39 37 38 40 39 37 34 34 33 33 34 37 39 39 38 39 39 39 38 38 37 35 34 32 28 25 23 22 21 20 24 32 37 36 39 64 98 114 123 138 151 158 163 168 172 175
74 75 74 75 77 80 86 92 97 99 102 103 102 100 96 92 91 92 91 88 85 84 83 82 79 75 71 67 63 62 62 60 59 58 53 48 47 46 45 42 40 39 37 38 38 38 36 35 34 33 32 32 35 36 36 37 37 37 37 36 36 36 36 35 35 33 33 32 30 27 25 23 21 22 25 25 34 89 148 176 183 181 182 185 186 187 188
76 75 73 72 70 71 73 80 87 93 95 94 93 89 85 86 90 92 89 83 80 79 79 79 77 74 69 65 62 61 60 59 57 54 50 48 46 45 42 39 36 34 34 35 36 36 36 37 37 37 35 33 33 33 33 32 33 33 33 32 31 31 31 31 31 32 33 33 32 32 33 30 24 20 21 23 23 19 294 228 219 213 211 210 206 202 200
82 80 79 78 75 73 73 75 80 85 88 86 84 83 84 87 89 89 84 80 78 75 74 76 79 77 73 68 65 63 61 59 56 54 52 52 50 46 42 39 36 33 33 34 35 35 36 37 37 37 37 36 35 35 34 33 32 33 34 33 32 30 28 27 26 25 26 26 27 29 30 31 29 29 28 27 24 21 18 340 228 225 229 229 223 216 209